When you browse on this site, cookies collect data to enhance your experience and personalize the content and advertising you see.
Visit our Privacy Policy to learn more. By continuing to use the site, you agree to this use of cookies and data.
  • In Germany
  • List of Countries
  • For 7 days
  • Water Temperature
  • Satellite Maps
  • Weather Map
  • Weather Widgets
  • user-avatar
    Login

    Hourly Weather Kipungo

    Today, 23 March, Saturday

    Time Temperature Precipitation Wind Pressure Humidity
    00:00 +22°C° 0.2 mm 1 mps 653 mmHg 70%
    01:00 +22°C° 0 mm 1 mps 653 mmHg 67%
    02:00 +22°C° 0.6 mm 1 mps 652 mmHg 73%
    03:00 +21°C° 0.6 mm 1 mps 652 mmHg 79%
    04:00 +20°C° 0.6 mm 1 mps 652 mmHg 85%
    05:00 +21°C° 0 mm 1 mps 652 mmHg 84%
    06:00 +21°C° 0 mm 1 mps 653 mmHg 83%
    07:00 +22°C° 0 mm 1 mps 653 mmHg 82%
    08:00 +25°C° 0 mm 1 mps 654 mmHg 69%
    09:00 +27°C° 0 mm 0 mps 655 mmHg 56%
    10:00 +31°C° 0 mm 0 mps 656 mmHg 43%
    11:00 +34°C° 0 mm 1 mps 656 mmHg 38%
    12:00 +35°C° 0 mm 2 mps 656 mmHg 34%
    13:00 +36°C° 0 mm 3 mps 655 mmHg 29%
    14:00 +35°C° 0 mm 3 mps 655 mmHg 34%
    15:00 +32°C° 0 mm 2 mps 654 mmHg 39%
    16:00 +31°C° 0 mm 2 mps 654 mmHg 44%
    17:00 +29°C° 0 mm 1 mps 654 mmHg 48%
    18:00 +28°C° 0 mm 1 mps 653 mmHg 52%
    19:00 +27°C° 0 mm 1 mps 653 mmHg 56%
    20:00 +25°C° 0 mm 1 mps 654 mmHg 61%
    21:00 +24°C° 0 mm 1 mps 654 mmHg 66%
    22:00 +23°C° 0 mm 1 mps 654 mmHg 72%
    23:00 +23°C° 0 mm 2 mps 654 mmHg 73%

    Tomorrow, 24 March, Sunday

    Time Temperature Precipitation Wind Pressure Humidity
    00:00 +22°C° 0 mm 3 mps 654 mmHg 75%
    01:00 +21°C° 0 mm 3 mps 654 mmHg 77%
    02:00 +21°C° 0 mm 2 mps 653 mmHg 80%
    03:00 +20°C° 0 mm 2 mps 653 mmHg 84%
    04:00 +20°C° 0 mm 1 mps 652 mmHg 88%
    05:00 +21°C° 0.5 mm 1 mps 653 mmHg 88%
    06:00 +21°C° 0.5 mm 1 mps 653 mmHg 88%
    07:00 +21°C° 0.5 mm 1 mps 654 mmHg 89%
    08:00 +23°C° 0 mm 1 mps 654 mmHg 79%
    09:00 +25°C° 0 mm 2 mps 655 mmHg 69%
    10:00 +27°C° 0 mm 2 mps 656 mmHg 59%
    11:00 +29°C° 0 mm 2 mps 655 mmHg 50%
    12:00 +32°C° 0 mm 2 mps 655 mmHg 41%
    13:00 +35°C° 0 mm 3 mps 655 mmHg 31%
    14:00 +34°C° 0 mm 2 mps 654 mmHg 35%
    15:00 +32°C° 0 mm 1 mps 653 mmHg 38%
    16:00 +31°C° 0 mm 1 mps 653 mmHg 41%
    17:00 +30°C° 0 mm 1 mps 652 mmHg 44%
    18:00 +28°C° 0 mm 1 mps 652 mmHg 47%
    19:00 +26°C° 0 mm 1 mps 652 mmHg 50%
    20:00 +25°C° 0 mm 1 mps 653 mmHg 53%
    21:00 +25°C° 0 mm 1 mps 653 mmHg 56%
    22:00 +24°C° 0 mm 2 mps 654 mmHg 59%
    23:00 +23°C° 0 mm 2 mps 653 mmHg 62%

    Day after tomorrow, 25 March, Monday

    Time Temperature Precipitation Wind Pressure Humidity
    00:00 +23°C° 0 mm 1 mps 653 mmHg 66%
    01:00 +22°C° 0 mm 1 mps 653 mmHg 69%
    02:00 +22°C° 0 mm 1 mps 653 mmHg 71%
    03:00 +22°C° 0 mm 1 mps 652 mmHg 74%
    04:00 +21°C° 0 mm 1 mps 652 mmHg 76%
    05:00 +21°C° 0 mm 1 mps 652 mmHg 75%
    06:00 +21°C° 0 mm 1 mps 652 mmHg 74%
    07:00 +22°C° 0 mm 1 mps 653 mmHg 73%
    08:00 +25°C° 0 mm 1 mps 654 mmHg 60%
    09:00 +29°C° 0 mm 1 mps 655 mmHg 48%
    10:00 +33°C° 0 mm 1 mps 656 mmHg 35%
    11:00 +33°C° 0 mm 1 mps 656 mmHg 32%
    12:00 +34°C° 0 mm 1 mps 655 mmHg 30%
    13:00 +35°C° 0 mm 1 mps 654 mmHg 27%
    14:00 +34°C° 0 mm 1 mps 654 mmHg 30%
    15:00 +33°C° 0 mm 1 mps 653 mmHg 33%
    16:00 +32°C° 0 mm 1 mps 652 mmHg 36%
    17:00 +30°C° 0 mm 1 mps 652 mmHg 41%
    18:00 +28°C° 0 mm 1 mps 652 mmHg 46%
    19:00 +26°C° 0 mm 1 mps 652 mmHg 51%
    20:00 +25°C° 0 mm 1 mps 653 mmHg 57%
    21:00 +24°C° 0 mm 2 mps 653 mmHg 64%
    22:00 +22°C° 0 mm 3 mps 654 mmHg 70%
    23:00 +21°C° 0 mm 3 mps 653 mmHg 75%

    26 March, Tuesday

    Time Temperature Precipitation Wind Pressure Humidity
    00:00 +21°C° 0 mm 3 mps 653 mmHg 80%
    01:00 +20°C° 0 mm 3 mps 653 mmHg 86%
    02:00 +20°C° 0 mm 3 mps 652 mmHg 86%
    03:00 +19°C° 0 mm 2 mps 652 mmHg 87%
    04:00 +19°C° 0 mm 2 mps 652 mmHg 87%
    05:00 +19°C° 0 mm 2 mps 653 mmHg 85%
    06:00 +21°C° 0 mm 1 mps 653 mmHg 83%
    07:00 +21°C° 0 mm 1 mps 654 mmHg 81%
    08:00 +25°C° 0 mm 1 mps 655 mmHg 68%
    09:00 +26°C° 0 mm 0 mps 656 mmHg 55%
    10:00 +30°C° 0 mm 0 mps 657 mmHg 42%
    11:00 +32°C° 0 mm 0 mps 657 mmHg 38%
    12:00 +35°C° 0 mm 1 mps 656 mmHg 33%
    13:00 +37°C° 0 mm 1 mps 656 mmHg 29%
    14:00 +35°C° 0 mm 1 mps 655 mmHg 33%
    15:00 +33°C° 0 mm 1 mps 654 mmHg 37%
    16:00 +31°C° 0 mm 1 mps 653 mmHg 40%
    17:00 +29°C° 0 mm 1 mps 653 mmHg 47%
    18:00 +27°C° 0 mm 1 mps 653 mmHg 53%
    19:00 +26°C° 0 mm 1 mps 653 mmHg 60%
    20:00 +25°C° 0.4 mm 2 mps 654 mmHg 66%
    21:00 +24°C° 0.4 mm 2 mps 654 mmHg 71%
    22:00 +23°C° 0.4 mm 2 mps 654 mmHg 77%
    23:00 +21°C° 0 mm 2 mps 654 mmHg 79%

    27 March, Wednesday

    Time Temperature Precipitation Wind Pressure Humidity
    00:00 +22°C° 0 mm 1 mps 654 mmHg 81%
    01:00 +21°C° 0 mm 1 mps 653 mmHg 83%
    02:00 +21°C° 1 mm 1 mps 653 mmHg 87%
    03:00 +20°C° 1 mm 1 mps 653 mmHg 90%
    04:00 +20°C° 1 mm 1 mps 653 mmHg 94%
    05:00 +20°C° 0.1 mm 1 mps 653 mmHg 92%
    06:00 +21°C° 0.1 mm 1 mps 654 mmHg 89%
    07:00 +21°C° 0.1 mm 1 mps 655 mmHg 86%
    08:00 +23°C° 0 mm 1 mps 655 mmHg 77%
    09:00 +25°C° 0 mm 2 mps 656 mmHg 68%
    10:00 +27°C° 0 mm 2 mps 656 mmHg 59%
    11:00 +29°C° 0 mm 2 mps 656 mmHg 52%
    12:00 +31°C° 0 mm 3 mps 656 mmHg 45%
    13:00 +34°C° 0 mm 3 mps 655 mmHg 38%
    14:00 +32°C° 0 mm 2 mps 655 mmHg 41%
    15:00 +31°C° 0 mm 2 mps 654 mmHg 44%
    16:00 +30°C° 0 mm 1 mps 654 mmHg 47%
    17:00 +28°C° 0 mm 1 mps 654 mmHg 51%
    18:00 +27°C° 0 mm 1 mps 654 mmHg 55%
    19:00 +25°C° 0 mm 1 mps 654 mmHg 60%
    20:00 +24°C° 0 mm 1 mps 654 mmHg 62%
    21:00 +21°C° 0 mm 0 mps 655 mmHg 65%
    22:00 +20°C° 0 mm 0 mps 655 mmHg 67%
    23:00 +20°C° 0 mm 0 mps 654 mmHg 69%

    28 March, Thursday

    Time Temperature Precipitation Wind Pressure Humidity
    00:00 +20°C° 0 mm 0 mps 654 mmHg 70%
    01:00 +22°C° 0 mm 1 mps 654 mmHg 72%
    02:00 +19°C° 0 mm 0 mps 654 mmHg 75%
    03:00 +19°C° 0 mm 0 mps 654 mmHg 78%
    04:00 +18°C° 0 mm 0 mps 653 mmHg 81%
    05:00 +19°C° 0 mm 0 mps 654 mmHg 79%
    06:00 +19°C° 0 mm 0 mps 655 mmHg 78%
    07:00 +20°C° 0 mm 0 mps 655 mmHg 77%
    08:00 +23°C° 0 mm 0 mps 656 mmHg 67%
    09:00 +28°C° 0 mm 1 mps 656 mmHg 57%
    10:00 +31°C° 0 mm 1 mps 657 mmHg 47%
    11:00 +31°C° 0 mm 2 mps 657 mmHg 42%
    12:00 +33°C° 0 mm 3 mps 656 mmHg 38%
    13:00 +34°C° 0 mm 3 mps 655 mmHg 33%
    14:00 +34°C° 0 mm 3 mps 655 mmHg 35%
    15:00 +32°C° 0 mm 2 mps 654 mmHg 36%
    16:00 +32°C° 0 mm 2 mps 654 mmHg 37%
    17:00 +30°C° 0 mm 2 mps 654 mmHg 43%
    18:00 +28°C° 0 mm 1 mps 654 mmHg 49%
    19:00 +26°C° 0 mm 1 mps 654 mmHg 55%
    20:00 +25°C° 0.3 mm 1 mps 654 mmHg 60%
    21:00 +24°C° 0.3 mm 1 mps 654 mmHg 64%
    22:00 +23°C° 0.3 mm 1 mps 654 mmHg 69%
    23:00 +21°C° 0 mm 0 mps 654 mmHg 70%
    Show more